Regional Weather Roundup
Issued by NWS

Home | Current Version | Previous Version | Text Only | Print | Product List | Glossary Off
Versions: 1 2 3 4 5 6 7 8 9 10 11 12 13 14 15 16 17 18 19 20 21 22 23 24 25 26 27 28 29 30 31 32 33 34 35 36 37 38 39 40 41 42 43 44 45 46 47 48 49 50

000
ASUS43 KOAX 061102
RWRNE

WEATHER ROUNDUP FOR NEBRASKA
NATIONAL WEATHER SERVICE OMAHA NE
600 AM CDT FRI MAY 06 2016

NOTES: SATELLITE DATA IS BEING USED TO AUGMENT CLOUD COVER ABOVE
       12000 FEET.
       "FAIR" INDICATES FEW OR NO CLOUDS BELOW 12,000 FEET WITH NO
       SIGNIFICANT WEATHER AND/OR OBSTRUCTIONS TO VISIBILITY.

  * THESE STATIONS DO NOT REPORT WEATHER SUCH AS RAIN...SNOW OR FOG.

NEZ001>004-019>022-054>056-061200-
NEBRASKA PANHANDLE

CITY           SKY/WX    TMP DP  RH WIND       PRES   REMARKS
SCOTTSBLUFF    CLOUDY    60  43  53 E3        29.93S
ALLIANCE       CLOUDY    45  42  89 SE9       29.94S
CHADRON        PTCLDY    50  45  83 N7        29.88S
KIMBALL        CLOUDY    50  43  77 S6        29.98S
SIDNEY         CLOUDY    52  44  74 SW13      29.96F
$$

NEZ057>060-069>072-079>082-061200-
SOUTHWEST NEBRASKA

CITY           SKY/WX    TMP DP  RH WIND       PRES   REMARKS
NORTH PLATTE   CLEAR     57  45  64 S9        29.96F
IMPERIAL       CLOUDY    53  45  74 E6        29.97S
MCCOOK         CLOUDY    54  45  71 SE7       29.98F
$$

NEZ005>010-023>029-035>040-094-061200-
NORTH CENTRAL NEBRASKA

CITY           SKY/WX    TMP DP  RH WIND       PRES   REMARKS
VALENTINE      CLEAR     60  47  61 SW15      29.90S
AINSWORTH      CLEAR     58  46  65 S14       29.92S
BROKEN BOW     LGT RAIN  55  45  68 SW10      29.97F
ORD            PTCLDY    51  44  77 CALM      29.96F
$$

NEZ041-046>049-061>064-073>077-083>087-061200-
SOUTH CENTRAL NEBRASKA

CITY           SKY/WX    TMP DP  RH WIND       PRES   REMARKS
GRAND ISLAND   CLEAR     58  42  55 S12       29.99F
AURORA         CLEAR     54  42  66 SW9       30.00S
HASTINGS       CLEAR     54  42  64 S7        30.00F
KEARNEY *      CLEAR     55  43  62 S12       30.00S
YORK           CLEAR     50  43  76 SW7       30.01S
$$

NEZ011>018-030>034-042>045-061200-
NORTHEAST NEBRASKA

CITY           SKY/WX    TMP DP  RH WIND       PRES   REMARKS
NORFOLK        CLEAR     57  42  57 SW12      29.96S
ALBION         CLEAR     54  42  64 S3        29.98S
BLAIR          CLEAR     55  44  64 SW7       29.99R
COLUMBUS *     CLEAR     55  37  50 SW6       30.00R
FREMONT        CLEAR     56  43  61 SW5       29.99S
TEKAMAH        CLEAR     50  44  80 SE7       29.98R
$$

NEZ050>053-065>068-078-088>093-061200-
SOUTHEAST NEBRASKA

CITY           SKY/WX    TMP DP  RH WIND       PRES   REMARKS
LINCOLN        CLEAR     55  43  63 CALM      30.02R
OMAHA EPPLEY   PTCLDY    53  44  71 SE9       29.99S
BEATRICE       CLEAR     49  44  81 E3        30.02S
FALLS CITY     CLEAR     51  43  74 SE3       30.02S
$$

NEZ044-045-051>053-067-061200-
OMAHA AREA

CITY           SKY/WX    TMP DP  RH WIND       PRES   REMARKS
OMAHA EPPLEY   PTCLDY    53  44  71 SE9       29.99S
BLAIR          CLEAR     55  44  64 SW7       29.99R
FREMONT        CLEAR     56  43  61 SW5       29.99S
$$




USA.gov is the U.S. government's official web portal to all federal, state and local government web resources and services.